Regional Weather Roundup
Issued by NWS Green Bay, WI

Home | Current Version | Previous Version | Graphics & Text | Print | Product List | Glossary Off
Versions: 1 2 3 4 5 6 7 8 9 10 11 12 13 14 15 16 17 18 19 20 21 22 23 24 25 26 27 28 29 30 31 32 33 34 35 36 37 38 39 40 41 42 43 44 45 46 47 48 49 50

000
ASUS43 KGRB 201912
RWRGRB

NORTH-CENTRAL AND NORTHEAST WISCONSIN REGIONAL WEATHER ROUNDUP
NATIONAL WEATHER SERVICE GREEN BAY WI
200 PM CDT FRI OCT 20 2017

WIZ005-009-010>012-018-019-202000-
NORTH CENTRAL WISCONSIN

CITY           SKY/WX    TMP DP  RH WIND       PRES   REMARKS
IRONWOOD       SUNNY     77  43  29 S17G26    29.83F
MANITOWISH WTR SUNNY     76  41  28 SW18G25   29.89F
ARBOR VITAE    SUNNY     77  44  31 S17       29.91F
EAGLE RIVER    SUNNY     75  40  28 SW12G17   29.93S
LAND O LAKES   SUNNY     77  38  24 SW9G17    29.93F
RHINELANDER    SUNNY     75  46  35 SW14G24   29.95F
PHILLIPS       SUNNY     72  47  40 SW16G22   29.90F
ANTIGO         SUNNY     73  48  41 SW16      29.98F
TOMAHAWK       SUNNY     75  42  30 S7        29.94F
MERRILL        SUNNY     75  48  39 SW12G17   29.95F
$$

WIZ013-073-202000-
NORTHEAST WISCONSIN

CITY           SKY/WX    TMP DP  RH WIND       PRES   REMARKS
IRON MOUNTAIN  SUNNY     76  48  37 S10       29.93F
MARINETTE      SUNNY     73  53  49 SW17G23   29.98
OCONTO         SUNNY     73  53  49 S9        29.98F
$$

WIZ017-030-035>037-045-202000-
CENTRAL WISCONSIN

CITY           SKY/WX    TMP DP  RH WIND       PRES   REMARKS
MEDFORD        SUNNY     72  49  44 S14G20    29.94F
WAUSAU         SUNNY     73  49  42 S12       29.95F
MOSINEE        MOSUNNY   72  50  46 S15       29.98F
MARSHFIELD     SUNNY     75  47  36 S14       29.95F
WISC RAPIDS    SUNNY     75  49  39 SW9       29.98F
STEVENS POINT  SUNNY     73  46  38 S14G20    29.98F
WAUPACA        SUNNY     77  48  35 S10       29.99F
SHAWANO        SUNNY     76  49  38 SW8       29.98F
CLINTONVILLE   NOT AVBL
WAUTOMA        SUNNY     76  46  34 SW13G20   29.99F
$$

WIZ038-039-048-051-202000-
FOX VALLEY

CITY           SKY/WX    TMP DP  RH WIND       PRES   REMARKS
NWS GREEN BAY  SUNNY     73  54  51 S13G20    30.00F
APPLETON       MOSUNNY   73  46  38 S16       30.00F
OSHKOSH        SUNNY     74  50  42 S15G21    30.01F
FOND DU LAC    SUNNY     76  46  34 SW12G22   30.02F
$$

WIZ022-050-052-202000-
EAST CENTRAL WISCONSIN

CITY           SKY/WX    TMP DP  RH WIND       PRES   REMARKS
EPHRAIM        FAIR      71  53  54 S9        29.98F
WASHINGTON ISL FAIR      60  52  77 S14G21    29.99F
STURGEON BAY   SUNNY     73  55  53 S12       30.00F
MANITOWOC      SUNNY     69  53  56 S10       30.02F
SHEBOYGAN      SUNNY     77  46  33 SW15      30.03F
$$

LMZ563-521-522-541>543-202000-
LAKESHORE

STATION/POSITION TIME  TEMP    WIND        PRES    VSBY  WAVE
                       AIR SEA DIR/SP/G                  HT/PER
                 (UTC) (F)     (DEG/KT/KT) (MB)    (MI)  (FT/S)
SHEBOYGAN LKSHOR 1900   58     170/ 18/ 19 1016.7F
KEWAUNEE LKSHORE 1842   55     180/ 12/ 15 1015.8F
NORTHPORT PIER   1840   62     160/  8/ 15 1015.6F
N MID LAKE BUOY  1850   60 58  190/ 17/ 19 1016.6F         4/ 6
S GREEN BAY BUOY 1800   62 58  220/ 10/ 12 1016.0
SISTER BAY LKSHO 1819   72     170/ 10/ 13   N/A
MENOMINEE LKSHOR 1842   70     200/ 10/ 14 1014.9F
$$



USA.gov is the U.S. government's official web portal to all federal, state and local government web resources and services.